Theta_e
298 299 299 298 298 297 296 296 297 296 297 296 297 297 297 297 297 295 295 294 299 301 304 306 308 310 312 313 314 317 320 320 319 319 319 320 321 321 322 323 324 325 326 329 332 334 336 337 338 340 341 341 342 343 343 344 345 345 345 341 337 335 332 332 332 333 332 333 332 332 332 329 329 331 332 332 332 331 330 331 331 330 330 330 330 330 330
298 298 298 299 299 297 297 296 296 296 296 296 298 299 299 299 299 300 300 297 301 304 305 306 309 311 314 314 315 316 317 316 318 318 319 320 320 321 322 323 324 325 326 328 330 333 334 336 337 338 339 340 341 341 342 343 344 344 342 339 336 333 332 332 333 333 331 331 331 330 326 327 329 330 331 332 332 330 330 330 330 331 330 330 330 329 329
295 297 297 296 298 298 298 298 298 296 296 296 297 298 299 301 300 299 298 299 300 304 305 308 310 312 310 310 313 315 317 316 316 317 318 319 320 321 322 323 323 325 326 327 329 331 332 334 336 338 339 340 341 341 341 342 343 342 341 337 335 333 332 333 333 331 329 329 329 328 325 327 329 329 330 331 331 331 330 329 329 330 331 329 328 329 328
292 295 296 296 296 296 296 297 298 297 295 294 295 297 297 299 299 299 298 297 299 305 305 309 310 309 311 311 311 312 313 314 317 317 318 319 320 320 321 323 323 324 325 326 327 329 331 333 335 336 338 339 339 340 341 341 342 340 338 336 335 334 333 333 332 330 328 327 326 327 326 328 329 330 331 332 331 330 330 329 329 329 329 328 328 328 327
290 295 295 296 294 294 292 293 296 297 297 298 297 300 302 302 301 298 296 298 304 307 309 308 306 308 310 311 310 311 312 315 317 317 318 319 320 321 322 323 324 323 324 326 327 328 329 331 333 335 338 337 338 339 340 341 340 338 336 335 334 333 333 332 331 331 328 325 327 329 330 330 330 331 331 331 331 330 330 330 330 328 328 328 328 327 327
289 294 294 294 291 286 288 295 299 300 298 298 298 298 299 301 302 299 301 303 305 307 307 308 307 306 309 312 313 313 314 314 315 316 317 318 320 321 322 323 324 324 325 326 328 328 330 332 334 336 338 338 339 340 340 340 338 336 335 334 334 333 333 332 332 331 329 327 329 330 331 330 330 329 329 329 330 330 331 331 330 329 329 329 329 328 327
292 293 294 291 287 288 296 302 305 300 302 301 300 304 305 307 306 306 305 304 303 306 308 309 309 310 311 314 313 312 312 314 315 316 317 318 320 321 322 323 324 325 327 328 329 329 330 332 334 336 337 338 339 339 339 338 337 335 334 334 333 333 333 333 332 331 329 328 327 327 328 329 329 328 328 329 330 330 331 330 330 329 329 328 328 329 329
291 291 290 285 284 293 303 305 307 309 304 304 305 303 304 306 307 305 304 306 305 305 307 308 311 311 312 312 315 315 314 315 316 316 317 318 321 322 324 325 326 327 328 329 329 330 333 332 333 334 336 338 338 338 338 337 335 334 334 333 333 333 333 332 332 330 328 327 326 327 328 329 329 328 328 329 330 331 331 330 330 330 330 329 329 329 329
291 288 290 288 296 301 303 303 305 304 302 302 303 298 302 305 309 306 304 304 305 306 308 310 310 311 311 310 311 311 316 316 317 318 318 320 322 324 325 327 328 329 330 330 330 332 332 331 331 332 335 338 338 337 336 336 335 334 333 333 333 333 333 333 333 330 329 327 328 329 329 328 328 328 328 329 330 331 331 330 329 328 329 328 330 329 329
291 289 288 291 293 290 296 302 308 310 310 310 308 302 301 306 309 309 306 306 307 307 308 309 310 311 309 308 309 310 312 317 318 318 320 322 324 324 325 324 324 326 327 330 333 333 332 332 332 333 335 337 336 335 335 335 334 333 333 332 333 333 333 333 333 331 329 328 329 331 331 329 329 330 330 331 331 332 331 330 329 329 329 329 330 330 329
292 291 288 286 288 292 298 303 307 312 312 311 308 303 299 306 309 309 307 307 309 309 309 309 309 308 304 304 307 311 312 316 314 316 316 318 319 320 320 322 324 323 327 331 334 334 333 333 332 333 335 335 334 334 334 334 334 333 332 333 333 333 334 334 334 333 331 330 331 330 331 331 331 330 330 330 332 332 332 331 330 330 330 328 328 328 329
294 289 287 289 292 297 304 306 308 310 311 310 303 295 294 303 309 310 309 308 307 308 310 309 308 307 304 305 312 311 315 316 317 319 320 322 325 328 331 333 330 329 335 336 333 333 333 333 333 334 334 334 334 333 333 334 333 333 333 334 334 335 335 335 335 334 333 333 333 332 331 332 332 331 332 332 332 331 330 330 330 330 330 329 328 328 328
294 296 290 292 297 304 307 308 309 309 311 305 296 290 298 308 309 310 311 309 308 308 309 310 307 308 310 310 313 314 318 317 317 320 322 323 327 329 331 334 338 332 332 332 332 333 333 333 333 334 333 333 333 333 332 333 333 334 336 336 335 335 335 335 334 334 334 333 332 333 333 334 334 335 333 332 332 331 329 328 328 328 327 328 327 327 325
294 291 291 292 295 302 307 309 309 310 306 295 292 301 310 310 309 309 310 309 310 311 311 311 310 310 314 317 317 318 318 318 318 320 323 327 329 331 334 333 330 328 328 328 328 328 328 330 331 332 334 333 333 332 331 332 334 335 336 335 335 335 335 335 334 334 334 334 334 333 334 333 331 332 332 332 331 331 330 329 327 327 327 326 323 321 321
296 292 292 292 290 302 309 307 308 308 299 298 304 310 311 314 312 312 313 313 312 312 311 312 313 314 315 316 316 317 319 320 321 322 323 324 326 327 328 327 329 329 325 325 327 327 329 329 329 331 332 333 332 331 330 330 331 333 334 334 335 335 334 334 334 334 334 334 333 333 332 332 331 330 330 330 330 329 328 327 327 326 324 322 319 321 322
295 292 290 290 299 305 310 308 303 307 307 309 311 311 309 312 313 313 313 313 314 315 315 315 315 315 315 315 316 317 317 318 319 320 321 324 326 328 328 327 327 327 324 325 325 326 327 328 328 329 330 331 331 330 329 328 331 333 333 333 334 333 334 333 333 332 334 334 334 333 333 331 330 329 328 328 328 328 328 327 326 324 322 322 322 322 322
298 297 300 304 307 308 309 309 308 309 311 312 311 310 310 311 311 313 313 313 314 315 315 315 315 315 315 316 317 317 318 319 319 319 320 323 326 328 328 327 329 323 323 323 323 325 325 327 327 327 328 331 332 330 328 330 331 331 332 332 332 332 331 331 331 332 333 333 332 331 331 330 328 327 326 326 325 325 327 326 324 324 322 321 320 320 320
309 308 309 310 309 309 309 311 311 310 310 311 310 308 308 308 308 310 310 310 311 312 315 315 315 316 316 317 317 317 317 317 319 321 322 323 324 325 326 326 328 322 322 323 324 326 325 325 326 329 326 329 332 329 328 331 330 331 331 331 331 330 330 330 330 329 329 330 330 330 330 330 330 329 327 326 326 323 323 323 323 323 321 319 318 318 318
299 297 308 307 307 308 308 309 312 313 314 313 313 310 310 311 310 310 310 310 310 311 312 314 314 315 318 319 319 318 317 317 318 318 320 322 323 324 326 327 328 321 322 323 325 326 326 324 326 326 326 327 329 328 329 328 330 330 330 330 330 329 328 328 328 328 328 328 329 330 329 328 328 328 325 324 324 323 322 320 320 320 319 319 318 317 318
302 302 310 310 309 310 310 307 307 308 310 311 313 314 315 316 316 315 314 313 312 313 312 313 312 313 316 317 317 318 318 319 319 321 321 322 323 324 324 326 326 321 321 322 325 325 324 325 325 326 326 327 327 328 328 329 330 331 330 330 328 327 327 327 327 327 328 333 330 326 325 325 324 323 322 321 321 321 319 319 318 318 319 319 318 318 318
307 310 311 310 309 307 308 310 310 310 309 309 311 312 312 312 311 311 312 313 312 313 312 313 314 315 315 317 319 322 322 320 318 319 321 322 322 323 322 323 325 322 322 323 323 324 324 323 325 326 326 327 327 327 328 329 330 330 329 330 328 326 327 327 327 329 330 332 325 319 313 309 306 306 309 312 317 315 309 311 315 319 318 318 320 319 319
300 301 303 307 303 302 306 309 311 312 312 310 309 309 308 309 309 310 311 311 313 313 314 315 317 317 318 319 317 319 319 319 319 320 320 320 322 323 324 325 325 325 326 324 324 324 323 322 320 319 318 321 326 328 329 329 330 330 329 327 326 326 326 327 327 324 321 319 317 316 314 313 311 307 302 297 300 309 310 308 304 300 306 319 320 319 316
300 306 308 310 309 307 310 311 313 314 314 310 307 307 308 308 309 310 310 309 309 310 311 314 313 314 316 318 320 321 321 321 321 322 322 321 321 322 324 324 322 322 322 326 324 322 319 317 316 316 317 319 324 327 329 330 330 328 327 327 326 326 326 324 323 321 319 318 318 317 316 316 316 315 311 306 295 294 298 301 298 295 298 303 307 311 315
307 309 308 309 307 305 308 311 311 313 316 311 308 309 309 308 309 310 309 309 308 308 308 309 311 311 311 313 314 313 315 320 323 324 324 324 323 325 325 322 321 321 322 323 322 318 316 316 315 316 316 318 322 325 327 328 328 328 327 327 325 325 325 324 324 323 320 320 319 318 318 319 319 316 313 310 307 298 294 294 295 294 294 296 297 300 302
302 306 306 306 306 306 307 307 308 310 315 312 310 309 309 309 309 309 308 309 309 308 307 307 308 310 309 310 311 311 311 313 321 326 326 327 328 324 323 322 320 320 320 321 317 316 316 317 318 319 318 318 319 320 322 323 325 325 326 326 325 325 325 325 324 326 323 322 322 322 321 319 316 315 313 312 310 307 304 295 293 292 293 294 295 296 296
309 307 308 308 308 307 308 308 307 307 307 309 312 313 316 318 313 310 308 308 308 308 308 307 307 308 310 309 310 310 310 311 316 318 319 323 324 323 321 321 319 318 319 318 316 317 318 320 320 320 321 321 322 323 323 323 324 323 323 324 325 325 325 324 324 324 323 322 320 319 318 317 316 315 315 314 313 310 309 309 308 302 296 293 293 294 294
313 314 312 307 306 307 308 305 304 308 307 307 307 308 309 310 313 310 308 308 307 308 308 308 308 309 310 310 313 312 312 312 312 311 313 316 320 323 324 321 320 320 319 317 317 319 322 323 322 321 321 322 322 324 326 324 323 323 322 322 321 329 331 328 323 324 322 320 318 317 317 317 317 317 316 317 316 312 312 312 311 310 308 305 298 294 299
313 315 312 307 305 307 309 311 311 311 311 309 307 307 308 309 308 307 306 306 307 307 307 308 308 308 308 309 309 309 310 309 310 311 313 315 318 321 321 320 320 320 319 318 319 323 323 321 321 321 321 321 321 323 324 325 323 322 321 321 320 323 329 327 324 323 322 320 318 318 317 316 317 317 318 318 316 315 313 315 313 310 308 305 305 299 295
309 311 314 313 312 312 313 313 311 311 310 311 311 308 309 307 307 306 306 306 306 307 306 306 308 309 308 309 309 309 310 309 310 310 312 316 321 320 320 320 320 320 319 320 321 322 321 320 320 321 321 321 322 322 323 323 323 322 322 320 320 322 326 325 323 323 321 320 319 318 318 318 319 319 319 318 318 315 314 314 312 311 308 306 306 305 304
309 310 310 311 313 312 309 306 307 306 306 307 307 307 308 308 306 306 306 306 306 305 305 306 306 306 308 308 309 309 310 310 310 311 316 318 318 319 321 321 320 320 320 320 319 320 320 319 320 320 320 322 324 324 323 323 322 323 323 324 324 324 324 323 322 322 321 319 319 319 319 318 318 318 318 317 316 315 314 313 313 310 307 307 307 306 306
308 307 307 307 306 306 305 304 305 305 306 306 307 307 307 308 307 307 306 307 307 306 306 306 307 307 307 307 308 310 312 312 312 315 316 316 316 317 320 320 319 318 318 319 319 319 319 319 319 320 321 323 324 324 323 323 323 324 324 324 324 322 321 321 321 321 321 321 320 319 318 317 317 318 317 316 316 314 314 314 313 312 309 308 308 308 308
304 304 304 304 304 304 304 304 304 304 304 305 306 306 306 307 307 307 308 307 307 308 307 307 307 307 307 308 310 312 313 313 313 315 315 315 316 316 317 320 324 324 319 318 319 320 319 320 320 321 323 323 323 323 324 325 325 324 324 327 323 323 322 321 322 322 324 324 321 320 319 317 317 318 319 319 316 314 314 313 312 311 309 308 309 308 309
303 302 302 303 304 303 303 303 304 304 304 305 304 305 307 308 309 311 311 310 308 308 307 307 308 308 308 308 309 312 314 314 314 315 314 314 315 317 318 319 319 319 319 319 319 320 320 320 321 322 323 324 324 324 324 324 324 323 323 324 324 326 325 320 321 324 325 322 320 320 320 320 319 319 318 318 316 315 314 314 313 313 311 310 309 310 309
303 302 302 303 302 302 302 303 303 304 304 305 305 306 308 309 309 309 312 312 309 309 308 308 308 309 309 308 309 313 314 314 315 315 311 311 313 315 316 318 317 317 317 318 319 320 320 321 321 322 324 324 324 324 324 324 323 322 322 322 322 321 321 322 323 324 322 322 321 322 320 320 319 318 319 319 317 315 315 315 315 314 312 311 310 310 305
305 304 304 305 305 305 305 304 304 306 305 305 305 306 307 308 309 310 316 311 309 309 309 309 310 310 310 308 309 313 313 313 312 311 311 312 313 314 315 316 316 317 317 317 319 319 321 321 322 323 324 324 325 325 323 323 322 321 322 322 323 322 323 323 322 320 319 317 316 316 316 317 318 320 320 318 317 317 317 317 316 316 314 312 310 310 307
307 306 306 306 306 307 306 306 307 307 306 305 306 308 309 309 310 309 310 309 310 311 311 311 312 311 310 309 309 310 312 313 310 311 312 312 313 314 315 315 316 316 316 316 318 319 320 323 328 328 324 325 324 322 323 322 321 322 322 322 323 324 324 322 320 318 318 317 317 316 316 318 319 318 319 317 318 318 317 317 316 317 315 312 311 309 308
308 306 306 306 306 306 306 307 307 307 308 307 308 308 310 310 310 310 312 311 311 311 311 312 311 311 311 311 311 311 312 312 312 313 312 312 313 314 314 315 316 316 316 315 317 320 320 323 329 328 325 323 322 323 326 326 321 321 321 320 321 320 319 317 317 316 316 317 317 318 319 318 317 318 319 316 315 315 316 317 317 316 314 313 311 310 308
308 308 307 307 307 307 307 308 310 308 309 308 308 310 312 311 311 310 310 310 311 311 313 311 311 311 312 312 311 309 310 312 313 313 312 312 311 313 313 314 315 315 315 315 318 320 318 325 329 323 321 321 323 325 328 327 324 318 317 318 318 318 318 317 316 315 315 316 318 317 316 315 315 314 315 315 315 315 315 315 315 314 312 312 310 309 308
308 308 309 308 308 308 308 309 309 309 310 308 309 311 313 314 313 311 310 310 311 315 312 310 311 312 312 311 311 312 312 313 314 314 313 314 315 313 313 313 313 315 315 316 318 319 323 326 322 321 321 322 324 326 327 327 323 317 317 317 317 317 317 317 316 315 315 316 315 314 314 314 313 313 313 313 313 314 315 314 313 313 310 309 308 308 308
307 307 308 308 308 308 308 307 308 308 310 310 310 310 311 312 312 310 310 311 311 315 311 310 310 312 311 310 312 313 313 313 313 313 313 313 313 314 314 314 316 318 321 323 322 324 326 325 320 318 319 320 321 322 324 323 320 317 316 316 317 316 315 316 315 315 315 314 316 318 313 314 313 313 313 313 313 313 313 314 314 312 309 308 308 308 308
308 308 308 308 308 308 307 307 308 308 308 309 310 311 311 311 311 310 311 311 312 312 311 311 311 313 312 311 313 314 314 315 313 312 312 312 312 313 313 312 314 317 321 321 323 324 324 321 320 319 318 318 318 322 319 318 311 309 311 314 315 316 315 315 316 315 314 314 316 314 313 313 313 314 313 313 313 313 313 313 313 312 310 308 307 307 307
309 309 309 309 308 308 309 308 309 308 309 309 311 311 310 311 312 312 312 312 312 311 311 311 316 317 314 312 312 313 313 312 313 313 314 314 312 311 311 313 315 317 323 325 324 322 321 320 320 319 316 317 319 319 317 313 308 309 310 311 313 315 315 316 315 313 314 314 313 313 313 313 312 312 312 313 312 312 312 312 312 311 310 309 307 307 307
310 309 308 309 309 309 310 309 308 308 309 310 310 310 311 310 311 312 312 312 312 311 312 312 313 314 313 309 309 310 310 311 311 311 311 312 313 314 313 313 314 316 324 322 320 317 316 315 315 316 319 318 319 320 315 307 307 308 309 311 313 310 310 310 310 311 311 311 311 310 310 311 311 311 311 311 311 311 311 311 311 311 310 309 308 307 306
309 309 308 309 310 311 310 309 309 309 309 310 310 310 309 310 309 310 312 312 312 313 313 312 312 312 313 312 310 310 310 310 310 311 311 312 313 314 314 315 316 321 325 322 318 315 314 314 314 318 321 321 320 317 309 306 306 307 309 309 310 310 309 308 307 306 306 308 307 306 307 310 309 309 309 310 310 310 310 310 310 310 310 309 308 307 307
307 307 308 309 310 309 308 308 308 308 309 310 309 309 311 310 310 310 311 311 312 314 315 313 312 313 312 313 312 311 311 311 312 312 311 311 312 312 316 322 321 322 324 321 316 314 313 313 316 321 322 322 320 315 305 304 304 305 307 307 307 307 307 306 305 306 307 306 305 305 306 306 306 307 307 307 308 307 308 309 310 310 310 309 308 307 307
308 307 307 313 310 308 308 308 308 308 308 308 307 309 311 310 310 311 310 310 310 311 311 312 312 313 312 312 313 311 311 312 313 313 313 313 314 314 316 321 321 324 323 322 315 313 312 316 318 321 322 322 318 309 303 307 308 306 305 305 306 307 306 305 307 306 307 306 305 305 305 305 304 303 303 303 303 305 306 308 309 310 309 309 309 308 307
307 307 307 306 307 308 309 308 309 309 306 306 307 307 310 310 310 310 310 310 310 310 311 311 311 312 312 312 312 312 312 311 312 314 315 314 316 319 320 323 323 323 323 318 315 313 313 316 320 320 321 321 316 302 303 304 304 303 304 304 305 306 305 305 306 304 305 305 306 308 307 306 303 301 304 306 305 306 306 307 308 309 309 309 309 309 309
307 307 307 306 307 308 307 306 307 306 306 305 305 308 309 309 309 310 309 309 310 309 309 310 311 311 311 312 312 312 312 313 311 311 312 314 315 315 316 318 321 323 323 321 318 317 316 319 319 319 320 320 310 300 303 303 303 303 303 304 305 304 304 303 303 303 303 304 306 305 305 304 303 302 302 302 302 303 303 305 306 307 309 309 309 309 308
305 306 307 308 308 308 307 308 308 309 306 306 308 308 309 310 310 308 309 310 309 310 311 312 310 309 309 313 316 315 314 315 314 313 311 313 315 315 315 320 323 324 320 316 315 315 317 315 316 316 318 319 304 301 301 302 304 306 305 304 304 304 303 303 302 302 301 302 303 304 303 301 301 300 301 302 303 303 305 304 305 305 306 307 308 308 308
306 306 307 306 306 307 306 305 306 306 306 309 308 308 308 309 308 307 309 309 310 315 312 309 309 309 308 308 308 310 311 314 316 315 315 315 314 314 317 317 320 323 319 315 314 313 317 317 316 317 318 315 304 302 301 302 303 306 305 306 306 305 306 304 304 303 301 304 302 303 303 303 301 302 303 303 303 304 304 305 305 304 304 305 306 306 307
307 306 306 309 310 311 309 308 308 309 308 308 308 309 311 310 309 312 311 312 311 311 311 310 309 308 307 307 308 309 310 312 314 320 319 316 315 317 318 317 318 320 319 316 314 313 312 315 314 314 315 315 307 303 302 303 304 305 308 307 307 306 306 305 305 305 303 303 303 303 303 303 303 302 302 302 304 304 305 305 305 306 305 305 305 306 306
306 306 306 307 306 307 307 308 308 308 309 310 309 309 310 310 311 310 309 315 313 311 310 309 309 308 307 307 311 311 311 312 314 315 320 320 318 315 317 320 318 318 319 316 313 311 310 312 314 315 313 311 310 306 307 308 306 305 306 308 308 307 308 308 307 305 305 305 305 304 304 304 303 303 303 303 303 304 304 305 304 305 305 305 305 305 305
Wind_Speed
18 16 15 9 6 6 6 8 9 11 11 12 14 12 10 11 10 11 7 8 8 8 11 13 14 13 14 14 15 16 15 11 5 4 7 11 13 10 10 11 10 10 11 11 12 13 14 13 13 13 12 11 10 10 10 9 9 9 10 12 13 13 13 14 15 13 13 16 18 19 16 11 9 5 3 6 7 9 9 10 9 9 9 9 8 8 8
14 14 12 7 11 6 4 6 6 8 10 12 15 15 12 15 9 10 11 13 15 12 11 12 13 14 13 10 4 3 3 8 11 10 11 14 13 13 14 11 11 11 12 11 12 12 11 12 13 12 11 11 12 13 12 10 8 9 12 13 13 14 16 16 12 12 15 16 16 15 13 13 11 9 9 10 9 9 10 10 10 9 8 9 9 9 9
11 12 10 6 9 11 12 10 7 7 7 9 9 6 4 7 10 7 6 10 13 9 7 10 4 1 1 5 9 14 12 8 10 11 13 13 15 15 9 9 10 10 9 8 7 8 10 11 12 12 12 11 10 10 9 8 8 10 12 12 13 15 15 12 13 14 14 15 15 16 16 12 10 8 12 10 9 10 10 10 10 9 9 9 9 8 8
5 6 9 11 9 10 12 15 14 9 5 5 4 5 6 5 7 4 3 4 9 10 5 3 2 4 6 9 10 8 8 9 11 14 15 15 14 10 10 10 8 8 8 8 9 11 12 11 10 9 10 10 8 9 5 6 8 10 11 13 13 12 12 13 14 15 14 15 15 14 11 11 11 11 9 10 10 11 10 11 10 8 9 9 9 8 7
6 6 8 12 7 2 6 12 13 11 9 7 6 3 5 10 8 6 6 10 11 14 7 7 5 7 10 10 7 7 7 11 16 18 19 18 12 11 11 10 10 11 11 11 11 11 7 8 9 8 5 4 6 4 7 8 10 11 12 12 12 12 13 15 16 15 15 15 13 11 10 10 10 10 11 12 11 11 12 11 8 9 10 8 8 8 8
5 7 4 2 4 8 9 9 11 13 12 11 10 7 9 7 8 8 8 8 4 2 5 11 10 9 10 16 15 11 13 15 13 9 6 7 10 9 9 9 10 9 7 6 6 6 6 5 6 6 8 9 8 8 9 11 12 12 13 12 13 14 14 15 16 15 14 14 14 14 14 12 10 12 14 13 11 10 9 7 9 9 9 9 9 8 9
7 1 5 3 9 8 7 3 3 8 14 16 14 3 2 0 3 5 7 9 7 9 10 13 12 14 7 2 4 5 5 6 9 14 12 10 10 10 9 9 8 8 8 6 5 5 7 10 8 8 8 7 8 9 11 11 12 13 13 14 13 14 16 15 14 14 16 17 17 16 14 12 11 12 12 11 10 10 9 10 10 11 11 10 10 9 9
2 2 4 4 6 4 2 3 5 4 4 6 13 4 1 1 2 4 8 11 8 6 7 6 2 0 0 3 3 1 4 9 10 8 10 11 10 11 11 12 10 8 9 11 12 12 7 6 7 8 7 8 10 10 10 12 12 13 14 14 14 14 15 15 16 16 17 17 15 13 13 14 13 11 10 10 11 11 9 9 8 8 8 8 10 10 10
4 4 7 7 2 1 1 1 1 2 3 8 10 10 3 3 1 5 4 5 5 5 4 2 4 6 4 4 3 4 1 4 7 12 13 13 12 9 7 9 11 11 10 9 8 4 5 7 7 7 7 9 9 10 11 10 12 12 13 13 14 16 15 16 17 17 16 15 14 14 15 12 10 11 11 11 12 9 9 9 9 9 10 10 10 10 10
3 4 2 1 1 3 6 4 2 1 0 2 3 3 2 2 2 5 6 3 3 4 4 5 6 5 8 4 1 5 4 1 2 1 3 4 5 6 8 3 4 4 3 2 2 3 5 5 4 5 7 9 10 10 10 11 12 12 14 15 15 16 16 17 17 15 15 16 17 17 12 7 8 10 10 9 9 7 9 10 10 11 10 9 8 9 10
3 1 4 4 5 4 6 2 4 2 1 1 2 2 2 2 1 4 6 5 2 3 6 10 7 7 6 4 3 5 2 2 5 9 7 7 8 6 4 5 7 7 5 4 5 3 2 4 4 5 6 10 10 10 10 12 13 13 15 15 15 17 17 16 15 14 14 14 12 10 7 9 9 9 10 11 7 5 8 8 9 8 7 7 7 7 8
1 5 4 2 2 2 1 3 4 6 3 1 3 6 5 1 5 2 5 9 7 5 2 4 6 8 9 3 1 3 1 3 4 9 11 9 9 6 6 7 5 7 8 7 6 2 4 6 6 7 9 9 9 11 10 11 13 15 16 17 18 14 11 11 12 11 10 10 9 10 10 11 7 7 5 3 5 7 6 6 6 4 4 5 7 5 3
4 0 1 2 1 3 2 4 9 9 3 2 3 7 6 1 3 5 3 9 9 7 6 4 8 3 2 5 2 1 0 8 9 7 7 8 8 9 10 10 9 7 4 4 3 2 2 3 2 6 9 9 9 8 10 11 15 17 14 9 8 9 9 10 10 10 9 10 12 10 9 3 1 2 3 4 4 6 6 5 5 4 5 4 1 3 5
3 2 1 2 2 2 4 9 8 5 2 3 7 2 3 1 3 4 3 10 9 12 12 11 8 5 3 3 5 11 12 11 7 9 10 11 12 10 9 10 9 6 5 4 4 5 6 4 2 1 2 6 5 6 8 12 4 5 5 6 7 8 8 9 10 10 10 10 11 8 5 4 4 4 3 4 4 5 4 4 6 6 4 4 5 5 6
1 2 1 2 4 2 8 18 6 4 2 2 3 1 4 4 3 7 8 8 6 12 12 8 8 7 8 11 12 12 12 13 12 11 11 10 9 7 6 6 6 6 5 7 7 7 6 5 3 1 1 2 3 4 6 3 1 4 6 7 8 9 9 10 11 10 11 12 10 9 9 7 4 5 5 6 6 6 7 7 7 6 7 7 8 8 8
2 4 2 1 2 10 15 5 4 3 4 4 6 5 5 3 5 8 10 10 7 7 12 11 10 10 11 10 11 12 11 10 8 8 6 5 5 6 7 7 6 6 6 5 7 6 5 3 2 2 2 3 3 4 4 2 5 7 8 8 9 10 10 10 11 10 11 12 12 10 7 6 7 7 7 6 7 7 7 7 6 7 7 7 7 6 5
2 1 3 4 4 7 9 5 6 6 9 6 4 5 5 10 9 4 11 9 8 9 11 11 11 12 10 9 9 12 9 11 11 11 8 7 8 8 10 9 6 7 6 5 4 4 5 5 4 3 3 4 3 4 3 4 6 8 9 10 10 10 11 10 10 9 9 10 11 8 9 9 7 5 4 4 4 3 5 5 6 6 6 5 5 4 4
4 3 1 1 5 8 10 8 8 11 8 7 6 5 10 7 6 7 10 7 8 8 9 13 9 9 7 12 11 11 10 10 8 7 9 10 9 9 7 6 5 5 6 6 6 6 5 5 3 2 2 2 2 3 4 5 6 8 9 10 10 10 10 10 10 10 10 10 11 11 9 3 2 1 3 4 5 4 4 5 5 6 6 5 5 5 5
3 2 7 8 5 5 7 6 9 11 9 6 5 5 5 3 6 8 7 8 8 7 9 10 9 7 6 10 8 8 9 10 8 7 7 6 6 7 6 2 1 4 4 4 4 3 3 3 1 2 2 2 4 5 6 6 7 8 9 9 10 9 10 9 10 10 12 10 9 6 6 3 1 1 3 3 3 4 4 6 7 6 5 5 5 5 5
9 8 1 4 2 2 3 5 7 7 7 7 6 3 2 3 3 6 5 6 8 7 9 6 7 7 8 6 5 6 5 6 4 4 4 5 3 1 1 1 3 4 4 3 3 4 2 1 1 2 3 5 6 6 6 7 8 9 9 9 9 10 10 9 8 8 9 11 9 6 6 5 3 2 1 3 5 5 6 7 6 5 5 5 6 5 5
6 9 7 8 3 9 8 8 8 6 5 5 5 4 5 5 9 9 10 11 8 10 8 6 6 9 7 5 3 1 2 3 3 3 2 0 0 0 1 2 1 4 6 5 5 6 5 3 2 2 2 3 4 7 7 7 9 10 9 9 10 9 8 7 7 7 7 6 7 6 6 7 6 3 3 2 3 0 3 4 2 5 6 5 4 5 5
11 12 14 14 12 2 2 6 8 8 7 5 7 8 11 8 7 7 13 13 13 13 10 9 12 12 9 8 6 8 7 7 7 6 6 4 4 3 3 3 1 2 3 3 2 2 3 4 4 4 3 3 4 5 6 7 10 11 11 10 10 8 7 7 7 7 6 6 7 7 7 6 5 5 8 7 3 0 2 5 4 2 3 5 5 5 5
5 2 5 4 9 10 4 7 7 10 6 8 13 11 10 10 10 10 13 14 15 16 13 10 10 9 9 8 8 11 9 8 4 2 2 2 2 3 3 3 3 3 3 4 5 4 4 4 4 4 4 4 5 6 7 8 9 11 12 10 9 8 8 7 8 7 8 8 8 9 8 7 5 3 4 3 13 12 6 6 6 9 1 5 9 8 8
9 7 5 2 4 10 5 2 6 11 7 9 12 9 10 12 10 11 13 12 12 10 10 10 9 9 9 8 9 10 8 7 7 6 4 2 2 2 2 2 2 3 4 4 4 4 3 4 5 4 6 4 4 6 7 8 9 10 10 11 10 9 8 8 9 8 9 11 11 10 8 8 9 9 6 4 4 10 10 8 10 9 7 7 8 9 11
7 6 9 10 12 12 8 8 9 9 5 6 11 9 11 12 11 11 14 11 10 11 10 10 10 10 10 9 9 8 6 6 7 6 5 4 4 3 3 4 3 3 4 4 5 5 5 5 6 6 6 5 5 5 4 6 9 10 10 11 11 10 10 10 10 10 10 9 8 7 8 7 3 5 6 6 6 3 5 7 9 9 8 9 10 12 12
11 11 11 13 15 12 5 12 16 13 11 9 8 8 10 11 11 13 12 10 10 9 10 9 9 9 9 10 9 8 9 8 5 5 6 5 1 2 3 5 6 5 7 7 7 8 8 7 7 7 7 5 4 4 3 3 4 6 8 9 11 10 9 8 8 8 7 6 7 6 5 5 5 4 4 5 5 5 5 4 4 6 9 10 9 11 10
9 6 8 19 17 15 13 11 5 6 8 9 9 9 9 8 11 9 6 7 7 7 7 5 4 4 6 6 4 5 6 7 8 9 6 7 7 4 1 4 6 8 9 9 8 8 9 8 7 6 6 5 4 3 1 1 4 5 5 4 4 8 14 9 7 7 6 5 5 6 5 5 4 4 4 5 6 6 6 6 7 6 4 2 5 6 5
10 9 9 11 7 7 5 6 7 8 11 10 8 7 5 4 8 10 10 9 8 6 7 7 9 10 10 8 8 10 11 11 9 9 10 9 8 5 1 4 6 7 8 9 9 8 7 6 6 6 6 5 4 3 3 2 1 2 4 4 3 3 6 7 5 5 7 6 6 6 5 5 4 5 5 6 6 6 4 3 4 5 4 1 2 3 6
10 11 12 11 10 8 7 7 7 9 9 6 5 5 5 9 9 9 8 6 3 4 7 8 5 5 5 5 7 8 8 9 9 10 8 7 7 5 1 4 6 7 7 8 8 8 7 6 6 7 6 4 4 4 5 5 5 4 3 3 3 3 4 5 5 2 3 4 4 5 5 5 5 5 5 5 4 4 3 3 3 3 3 4 3 3 2
4 7 10 8 8 7 5 3 2 2 4 3 3 5 4 7 8 6 4 5 5 7 4 3 5 7 5 6 6 6 7 6 6 6 6 7 6 2 2 5 5 4 4 5 7 7 5 4 3 2 2 4 5 5 5 5 4 3 3 3 3 4 4 4 5 5 5 5 5 7 5 5 4 4 4 4 5 5 5 5 5 5 5 5 5 5 6
3 6 8 5 4 5 5 5 4 3 3 4 4 6 6 6 7 5 4 3 3 4 4 4 4 5 6 5 4 4 3 3 5 6 5 5 5 4 1 3 7 7 7 6 3 2 4 4 5 5 3 5 6 6 6 5 5 6 6 5 6 8 10 9 6 6 6 5 5 5 5 5 4 5 5 6 6 5 5 6 6 5 5 5 5 6 6
5 5 5 4 4 7 7 3 4 5 4 4 7 8 6 6 6 4 3 4 3 2 4 6 7 6 5 5 4 4 4 4 4 5 5 5 5 5 3 2 1 3 6 5 4 5 5 5 6 4 5 5 6 6 6 6 6 6 6 5 5 5 5 8 6 7 6 6 6 6 6 6 5 5 6 6 6 6 7 7 7 5 5 6 6 6 4
3 8 7 5 5 7 6 4 5 5 5 6 4 2 2 2 2 2 2 2 5 5 6 6 5 5 5 5 5 5 5 4 3 4 5 5 5 5 4 3 5 6 5 5 6 5 6 7 5 4 5 5 6 6 7 7 7 6 5 5 4 4 5 5 6 6 6 5 5 5 5 4 4 5 5 5 6 7 7 5 5 5 6 6 5 5 6
7 7 5 2 3 5 5 3 1 3 3 2 2 2 3 3 2 3 3 3 5 6 6 5 5 5 5 5 4 4 4 5 5 5 4 3 4 4 5 5 6 7 7 6 6 6 6 6 5 5 5 5 3 3 3 4 5 5 6 6 5 4 5 5 6 5 5 5 5 5 4 4 4 3 4 6 6 6 5 5 5 5 5 5 4 4 5
6 5 4 3 2 3 3 3 3 2 3 3 3 3 2 2 4 4 5 5 6 4 4 4 5 5 4 4 4 4 3 2 2 2 2 2 2 3 4 6 7 8 7 6 6 5 4 5 6 5 5 4 4 2 2 5 4 5 6 6 5 5 5 5 5 4 5 4 4 5 4 4 3 4 5 5 5 5 4 4 4 5 5 5 4 4 4
5 5 4 4 3 3 3 3 2 2 2 2 1 2 3 4 5 6 6 6 5 4 4 5 5 5 4 5 6 6 5 4 2 4 5 4 4 4 5 6 7 8 7 5 2 1 1 1 6 5 4 4 4 3 4 6 5 6 6 6 6 5 5 5 5 5 4 5 4 4 4 4 4 4 4 3 3 4 3 4 5 5 5 5 6 5 4
5 4 3 3 3 3 3 3 3 3 3 3 3 4 6 6 5 3 3 4 4 4 4 5 5 6 7 6 6 5 4 3 2 3 4 3 3 5 6 6 5 5 5 5 2 1 2 2 3 6 4 5 5 5 4 7 5 5 5 6 5 6 5 5 5 5 4 4 4 4 4 4 3 2 2 3 2 2 2 3 4 4 3 4 4 5 4
5 6 5 5 4 4 4 4 4 4 5 5 4 3 3 3 4 3 4 4 4 5 4 3 4 4 5 5 4 4 4 4 3 1 3 4 5 4 4 4 4 2 3 4 1 2 1 3 8 5 4 5 5 5 6 8 8 6 5 5 5 5 5 5 4 4 4 3 4 4 4 3 2 1 1 2 2 2 2 2 2 3 3 4 4 4 4
9 7 7 6 6 6 5 6 6 4 5 5 4 4 4 3 3 4 5 5 4 4 5 5 5 6 6 7 8 6 5 3 3 2 3 5 4 4 4 4 3 3 2 1 1 1 2 4 5 3 4 6 7 6 6 9 8 6 5 4 5 4 4 4 4 4 3 3 3 2 2 2 2 2 2 2 2 2 3 3 3 3 3 3 4 4 5
5 5 5 5 5 5 5 5 5 4 3 2 3 3 4 4 4 5 5 6 6 6 5 5 6 7 6 6 7 6 4 1 3 4 5 4 4 3 1 2 3 5 3 3 4 5 8 12 9 6 7 7 8 6 4 7 7 5 5 5 4 5 4 4 4 4 4 3 3 2 2 2 2 1 1 2 2 3 2 3 4 3 3 3 4 4 5
3 4 4 4 4 4 4 5 5 4 3 4 4 3 3 4 4 5 5 5 6 6 6 5 6 7 6 5 5 5 4 3 3 4 3 4 3 3 1 4 3 2 2 3 4 7 9 7 6 7 5 5 5 5 5 7 6 5 5 5 5 5 4 4 4 4 4 3 3 3 2 2 2 2 2 2 2 2 3 3 3 3 3 4 4 4 4
4 3 4 5 4 4 4 3 3 5 5 4 4 4 5 5 4 4 4 5 5 5 5 5 7 6 4 3 3 3 4 4 3 4 4 4 3 2 3 2 2 1 6 7 7 4 3 4 4 4 5 5 5 9 8 5 5 5 5 5 5 5 4 4 4 3 3 3 3 3 2 2 2 2 2 2 2 3 3 4 3 4 4 4 4 5 5
5 5 4 4 4 4 4 4 4 3 4 4 4 4 4 4 4 5 5 4 4 5 5 4 4 4 3 1 2 3 3 3 3 3 2 2 0 3 4 2 1 0 6 3 2 2 3 4 4 4 6 6 6 11 9 5 5 5 5 5 4 4 4 4 4 4 4 3 3 2 2 2 1 1 2 2 3 3 3 4 5 5 5 5 5 5 6
4 4 3 3 4 4 4 4 5 5 6 7 6 5 4 4 4 4 4 5 5 5 5 6 6 6 6 5 3 3 2 2 3 2 4 4 4 1 0 3 0 3 8 3 2 1 3 3 3 5 9 11 12 10 6 5 5 4 4 4 5 5 5 4 4 4 4 4 4 4 4 3 3 2 3 3 3 3 4 5 5 6 5 5 5 5 6
4 3 4 4 3 3 4 5 5 5 5 5 5 4 3 5 4 3 3 4 4 5 5 5 6 6 5 5 3 3 3 3 2 1 4 4 4 4 3 1 2 0 4 6 3 3 3 3 4 7 9 11 11 9 6 5 5 5 4 5 4 4 4 4 4 4 4 5 4 4 3 3 3 3 3 3 3 3 4 5 6 6 6 6 6 6 6
4 4 3 4 4 4 3 3 3 2 4 4 5 4 4 4 5 5 3 4 5 5 5 5 5 5 5 4 4 3 3 4 4 4 4 2 0 1 1 0 3 2 5 6 4 4 4 6 7 8 9 10 10 7 5 5 5 5 5 5 5 5 5 4 4 5 4 4 4 4 3 3 3 3 3 3 3 4 4 4 5 5 6 6 6 6 6
3 4 3 3 4 3 3 2 2 2 3 5 7 6 7 6 6 5 5 4 3 4 5 5 5 5 4 4 3 2 3 4 5 4 4 4 4 3 3 3 5 6 5 4 4 4 5 6 7 8 10 12 9 5 5 5 5 5 5 5 5 5 5 5 5 5 4 4 4 4 4 4 4 4 3 3 3 4 4 4 4 5 5 6 6 6 6
4 4 4 3 4 5 3 3 3 4 4 3 4 6 6 6 5 5 5 4 4 3 4 4 4 5 4 3 4 4 4 2 1 5 3 4 3 3 3 3 4 8 8 6 7 6 9 10 9 10 11 11 6 5 5 5 5 5 5 5 5 5 5 5 4 5 5 5 4 4 4 4 4 4 3 3 4 4 4 4 4 4 4 5 6 6 6
3 4 4 3 3 3 3 3 3 4 4 3 3 5 5 5 6 5 3 4 5 5 5 4 4 5 4 4 2 2 3 4 3 2 3 2 3 3 3 3 5 8 6 5 6 5 8 10 10 11 12 10 6 5 5 5 6 6 6 6 6 6 6 6 6 6 5 5 5 5 5 5 4 4 4 4 4 4 4 5 5 4 3 3 4 4 5
2 2 3 4 3 3 1 2 6 5 4 3 5 5 4 4 6 6 6 5 4 4 5 5 5 5 5 5 4 3 2 3 4 5 5 4 4 3 3 3 4 4 5 5 5 5 6 9 10 9 8 5 5 5 5 6 6 6 6 6 6 5 6 6 4 4 5 4 5 5 5 5 5 5 4 4 4 4 4 4 5 5 6 4 4 4 4
4 3 3 3 2 3 3 3 5 4 5 5 5 4 2 3 5 5 5 5 6 5 6 6 5 5 5 5 4 4 4 4 4 4 4 4 3 3 4 4 4 4 5 5 5 5 5 5 6 6 6 6 6 6 5 6 6 6 6 6 7 6 6 5 5 5 5 6 5 5 5 5 5 5 5 5 5 5 5 4 5 5 4 3 3 4 4
5 4 3 2 3 5 5 5 4 4 5 4 4 3 3 3 3 6 7 4 2 5 5 5 8 6 1 3 6 6 5 4 4 4 4 4 4 4 4 4 5 5 5 5 6 5 5 6 6 7 7 6 6 6 6 7 6 6 6 6 5 6 6 5 6 6 6 6 6 6 6 5 5 5 5 5 5 5 5 5 5 5 5 5 4 4 4
Wind_Direction
221 220 216 184 182 193 192 198 190 194 197 174 187 208 201 144 199 215 230 179 194 222 216 214 212 201 200 199 204 207 204 194 167 124 159 189 201 197 192 198 192 191 192 194 196 198 204 203 206 210 210 212 213 216 215 206 188 173 155 158 167 166 166 177 187 168 142 156 170 177 179 162 157 139 131 225 214 213 214 217 213 210 210 209 213 218 223
234 230 224 180 197 214 212 208 206 201 183 194 195 206 194 183 208 210 199 179 204 208 214 214 221 213 204 204 184 103 149 183 184 184 185 195 200 201 202 192 195 197 198 192 197 199 199 201 205 206 207 210 210 210 210 196 175 156 156 165 162 167 177 184 167 149 160 169 172 175 164 170 162 165 198 212 218 221 220 218 215 207 206 209 212 214 217
240 238 232 208 200 208 229 236 223 201 186 198 211 229 235 209 227 230 191 182 224 246 212 216 234 84 66 97 164 187 194 174 176 184 193 200 206 208 192 193 197 199 195 196 193 195 203 203 206 205 208 210 210 212 207 182 164 163 158 161 169 174 179 166 157 163 162 169 172 175 181 167 139 200 222 217 208 218 221 218 214 208 203 209 213 216 215
273 233 215 222 206 214 225 238 234 225 193 198 189 199 194 160 220 202 113 192 240 255 230 227 163 159 176 194 193 188 187 187 183 187 197 205 205 192 194 198 192 190 192 189 190 200 204 205 204 204 206 207 197 208 178 149 153 152 155 167 172 172 163 163 167 165 166 169 177 176 168 166 164 204 221 224 215 214 219 220 218 207 208 211 212 213 214
258 240 193 215 196 179 261 247 240 223 218 202 202 200 168 198 174 145 185 226 218 223 187 173 204 177 201 212 208 196 196 190 182 191 202 202 187 188 191 191 191 195 193 194 198 202 197 198 201 207 184 158 190 152 136 155 141 154 163 167 165 166 169 171 173 169 168 169 167 157 155 156 193 204 217 226 225 216 219 221 215 212 215 209 216 214 214
238 252 199 101 106 211 229 227 215 202 205 195 210 215 199 211 158 194 204 238 250 116 153 190 198 191 204 205 213 195 182 183 196 214 202 182 181 185 191 192 189 193 187 190 191 187 184 180 185 179 179 189 173 152 148 147 153 158 161 169 170 172 172 176 176 172 163 164 169 166 170 177 189 206 215 223 226 225 222 219 218 221 216 213 216 216 216
253 32 88 151 222 237 235 272 231 204 200 197 198 109 89 141 252 269 273 252 236 215 198 200 204 204 213 191 155 178 182 178 198 187 173 176 177 182 178 180 187 183 180 167 155 163 188 196 192 178 188 173 144 147 151 154 157 159 168 169 174 175 178 179 173 169 171 173 172 170 170 183 198 214 215 218 224 223 216 214 215 216 213 211 216 217 218
55 94 151 208 239 235 264 77 67 103 105 119 94 45 277 204 221 207 232 244 236 234 238 254 274 213 255 44 20 203 182 161 160 160 177 177 170 177 185 180 180 164 171 181 187 198 192 167 175 185 177 147 155 160 159 156 162 165 167 173 178 178 180 178 179 178 176 175 169 170 177 202 198 205 214 217 222 221 215 217 220 219 219 211 215 217 217
200 206 177 208 261 49 61 61 11 69 158 176 165 165 218 193 212 192 219 268 278 236 215 190 113 132 96 44 348 351 308 203 183 182 179 169 175 165 169 166 178 188 185 182 189 160 160 176 172 183 154 153 149 153 160 160 159 165 169 175 182 185 185 182 183 182 175 164 163 172 188 206 197 204 209 217 226 220 214 215 214 214 216 214 214 215 217
128 125 73 16 139 168 254 228 256 238 149 246 237 102 184 262 278 209 188 195 274 241 148 136 152 125 78 103 287 317 343 91 122 65 101 114 130 149 150 126 105 106 97 85 113 154 151 166 178 158 155 151 149 154 161 161 161 168 177 185 186 188 190 188 186 176 166 166 172 181 185 181 208 218 212 218 225 214 215 213 215 217 217 218 217 216 217
95 131 148 191 163 237 206 246 271 269 134 315 163 88 119 224 194 230 166 126 156 246 179 157 154 112 124 196 266 295 294 82 102 103 89 91 95 99 122 140 121 113 125 136 141 124 129 148 184 161 156 149 155 164 164 169 170 174 189 191 188 193 194 187 181 171 169 172 171 170 164 206 201 213 215 212 207 200 223 224 228 225 220 217 222 221 217
282 145 115 204 215 114 296 269 310 315 325 149 120 160 219 286 327 256 124 120 111 86 58 105 80 121 141 188 318 310 311 118 111 112 112 107 105 99 99 81 102 128 131 105 82 106 193 203 175 169 156 161 165 172 173 166 178 191 195 195 196 191 180 176 173 167 161 155 153 157 195 216 194 206 234 212 191 197 212 215 232 241 217 228 232 234 181
303 41 161 336 306 284 282 315 310 308 300 105 123 185 220 298 350 300 135 110 118 113 83 66 91 343 164 169 170 41 105 65 43 40 65 76 72 65 49 46 43 45 46 92 125 127 8 341 273 169 159 157 177 177 174 177 194 203 200 184 164 170 170 163 158 151 143 157 158 175 208 247 256 216 191 210 201 199 211 197 197 197 212 220 341 39 54
331 298 126 197 228 233 311 315 299 265 85 123 212 228 307 29 36 356 12 99 109 106 97 102 102 129 120 146 106 79 71 79 70 56 53 54 51 46 56 54 49 44 42 26 32 41 23 40 25 314 195 174 157 159 178 202 223 30 74 129 144 148 154 150 146 150 155 157 157 164 183 181 200 245 264 235 211 200 179 177 193 198 150 115 95 124 135
4 28 61 67 112 256 12 319 328 29 110 218 174 108 10 28 78 81 47 53 45 94 90 83 108 99 74 70 67 65 62 62 59 56 53 54 62 62 54 49 52 62 40 14 15 24 21 41 34 42 114 129 113 152 191 199 135 112 97 116 129 139 147 156 159 158 158 159 149 165 191 198 164 219 220 206 202 182 189 185 177 163 147 153 157 190 191
308 342 36 204 256 292 313 313 104 332 77 144 102 102 80 31 68 65 78 50 41 61 92 96 79 71 77 57 58 62 55 56 55 62 70 91 96 76 70 82 70 62 47 32 20 16 16 30 53 68 129 149 151 166 187 197 121 127 128 123 133 145 154 157 160 164 161 159 165 173 177 192 195 199 203 197 189 190 186 173 169 169 178 183 195 189 179
167 226 246 261 279 308 315 12 81 82 64 46 64 103 105 93 71 72 72 75 67 72 79 71 73 69 59 76 61 69 58 54 49 48 40 32 43 50 55 50 55 62 65 50 35 47 39 25 22 50 102 147 158 164 196 133 125 131 138 140 140 150 156 158 160 154 151 157 159 153 172 191 191 175 191 178 176 187 170 179 177 168 167 188 189 170 170
206 176 144 319 359 348 342 1 52 68 56 33 25 53 78 49 70 66 88 84 76 72 79 80 59 74 80 74 73 74 71 67 63 61 48 37 34 36 50 48 51 77 71 59 51 31 32 32 33 38 52 119 154 173 151 136 136 133 138 145 147 147 149 150 145 139 136 151 161 177 193 119 95 205 186 176 187 181 185 177 166 174 173 166 171 173 191
74 5 337 12 346 346 352 12 29 49 36 30 15 29 51 84 91 81 75 81 65 48 54 75 84 57 64 92 90 95 85 79 80 80 82 65 54 57 52 13 66 64 70 80 84 75 42 347 21 93 116 116 142 149 150 145 138 134 136 143 146 143 142 141 139 138 143 152 161 146 77 71 29 88 114 139 152 180 192 179 169 158 155 163 179 199 204
140 170 272 328 25 62 51 37 46 31 15 21 34 38 6 18 36 78 77 78 68 69 59 42 71 58 23 42 66 71 76 93 83 86 79 83 68 21 181 204 137 104 107 117 129 134 148 238 324 182 166 171 165 160 149 142 134 133 134 139 138 141 139 140 140 138 137 148 143 140 138 132 126 127 123 132 160 179 197 190 149 149 157 185 200 192 184
76 92 144 170 93 46 24 34 38 40 31 41 48 45 48 45 66 70 62 62 63 59 69 72 85 73 45 11 343 63 94 46 28 22 26 18 276 306 334 307 265 174 160 154 156 153 154 138 139 163 196 183 166 154 150 141 136 131 128 122 124 129 132 133 142 147 146 139 133 123 95 86 80 94 192 167 47 263 301 356 70 143 176 195 193 184 165
154 162 178 163 120 223 19 35 37 32 15 52 65 61 58 49 58 66 80 70 66 62 46 48 57 52 39 25 21 27 19 10 2 5 354 352 7 343 344 52 353 356 52 90 127 138 129 134 141 140 141 129 141 150 139 142 137 130 131 131 132 139 147 146 134 119 99 99 106 109 113 114 117 78 59 97 138 160 39 22 8 283 193 203 186 152 130
189 210 138 349 111 113 142 129 94 64 20 61 65 55 64 55 45 50 63 65 58 52 44 30 53 60 59 41 47 50 33 12 347 268 257 297 322 315 324 360 353 40 67 97 109 117 126 123 121 117 106 109 119 131 140 144 139 136 137 134 136 138 136 136 129 122 126 127 139 137 139 132 106 135 180 73 51 49 34 16 13 16 164 182 154 169 159
43 62 68 28 81 110 129 79 73 90 65 61 68 62 63 62 48 50 56 49 63 61 55 43 40 46 50 42 49 50 36 26 18 5 344 325 285 295 25 74 75 75 78 94 119 125 111 90 81 70 79 73 104 123 133 136 134 134 136 138 142 145 138 141 140 139 146 151 152 149 148 167 178 164 131 120 46 39 37 35 42 51 59 107 123 127 127
89 59 68 71 82 76 71 67 57 52 43 59 77 60 62 60 53 52 57 49 45 54 50 39 30 32 40 38 42 39 31 22 23 16 7 3 12 39 48 66 88 113 118 111 98 92 83 78 68 58 64 51 43 58 84 123 139 143 149 146 147 146 147 148 155 166 162 159 155 149 152 159 141 131 144 150 135 117 35 54 72 68 60 74 96 106 107
67 73 80 72 62 49 32 62 42 32 30 27 54 52 53 65 63 57 47 43 43 40 49 41 39 25 33 33 26 17 26 19 4 25 31 21 13 120 140 156 157 142 128 124 129 129 122 112 113 115 113 113 86 70 66 85 116 133 144 148 148 149 155 159 159 161 159 150 150 151 135 129 137 146 144 139 140 141 132 125 88 59 53 50 70 94 96
17 352 48 64 58 50 40 63 77 29 48 42 49 44 28 35 54 61 53 46 51 45 51 52 61 50 44 36 31 35 31 5 16 19 11 7 358 330 166 136 136 137 134 132 134 142 138 137 139 139 147 175 186 179 128 162 134 122 119 132 156 158 155 151 155 157 158 137 124 115 117 136 148 148 150 155 150 158 170 162 159 151 147 67 28 36 115
39 30 65 93 83 79 70 50 42 44 42 36 30 52 57 46 55 54 42 33 27 27 30 30 33 35 33 12 23 12 14 18 11 360 3 355 333 323 283 129 125 130 137 142 149 152 147 151 157 167 189 190 190 223 207 202 284 143 131 139 159 179 171 158 147 165 152 144 138 142 145 135 140 157 159 162 166 173 166 154 136 133 132 91 94 53 75
25 56 60 74 90 84 65 44 34 55 47 7 30 30 39 59 52 56 45 29 353 22 30 9 15 37 38 15 25 21 13 8 4 356 337 328 331 331 212 133 135 137 144 151 158 163 165 170 178 181 176 140 177 189 193 180 187 188 179 161 161 164 135 118 123 112 98 111 105 115 126 140 150 154 158 153 136 130 129 140 129 115 104 138 128 96 65
58 74 78 70 87 84 73 98 116 120 154 191 135 84 75 88 74 57 50 22 20 42 1 341 18 22 12 23 15 13 13 355 331 319 322 335 332 326 136 125 107 111 125 156 173 177 167 152 141 121 354 42 100 105 116 130 139 136 121 108 103 130 131 121 123 120 121 112 123 129 128 136 134 134 132 122 127 134 141 147 154 151 153 171 168 152 163
37 68 91 115 139 173 153 107 82 68 54 48 67 74 60 76 85 71 43 23 29 31 3 14 16 16 13 4 334 325 323 352 344 338 343 342 350 357 74 164 143 165 175 170 137 90 95 82 77 63 37 74 85 93 95 98 98 107 106 94 90 103 108 106 111 120 115 115 120 120 120 121 134 139 142 148 152 152 160 161 166 170 174 167 167 167 184
123 110 104 98 89 77 68 67 75 62 54 50 59 54 44 59 58 47 27 26 11 350 1 14 15 358 335 323 326 330 348 2 2 357 353 0 357 354 348 328 240 138 120 110 98 104 110 97 76 54 58 65 67 95 119 121 120 111 108 115 108 96 106 109 109 119 124 128 129 135 141 144 150 163 156 159 161 159 165 166 179 178 167 170 184 192 174
126 74 48 36 47 56 54 27 71 59 53 59 62 87 73 73 74 53 46 14 5 9 15 6 350 337 327 327 338 339 347 344 6 36 11 357 350 353 355 40 85 95 98 115 117 103 99 101 103 89 92 101 102 102 95 100 100 94 78 68 76 96 95 91 103 97 96 100 116 130 140 143 148 153 157 155 160 164 169 174 178 175 178 191 191 172 183
102 114 140 159 146 123 114 69 59 87 66 79 99 65 49 22 21 5 6 21 14 11 3 337 319 315 319 329 332 332 341 12 6 352 352 334 342 4 15 47 69 86 89 75 72 78 77 78 78 72 66 71 83 95 96 96 104 121 130 123 110 92 83 72 81 84 95 95 93 98 102 128 141 143 153 160 162 166 173 178 182 182 186 190 183 172 179
106 121 130 128 125 126 128 120 118 112 96 60 21 10 17 17 25 6 8 23 9 330 311 314 316 324 325 323 328 328 331 313 256 193 166 111 48 40 75 92 91 93 84 74 93 101 114 121 113 110 101 92 67 29 122 94 99 108 91 93 94 95 101 96 93 99 106 111 111 113 109 121 135 151 154 151 161 166 179 180 183 190 194 189 178 168 176
70 66 53 48 45 63 86 93 87 116 131 97 53 28 27 19 20 17 4 343 311 321 334 334 332 322 327 337 329 320 313 306 257 171 161 152 142 128 116 116 120 116 118 96 27 1 29 127 123 116 125 117 99 78 45 69 78 82 103 106 105 101 96 99 103 98 98 104 102 102 111 122 122 122 126 130 148 164 172 188 198 199 193 185 184 186 173
50 71 68 56 35 42 41 33 25 23 30 42 39 31 22 16 11 344 321 318 333 345 340 337 344 349 337 324 306 293 298 300 245 181 158 148 137 120 126 119 111 112 102 114 199 313 19 332 118 100 69 64 72 69 106 110 87 94 91 96 100 99 99 94 86 90 86 89 96 113 122 113 86 72 106 107 120 145 166 182 201 197 182 182 184 187 168
25 38 37 34 17 23 17 10 9 34 40 44 30 27 27 13 359 350 335 339 349 338 337 344 340 326 335 339 358 356 346 359 1 22 34 18 4 34 56 66 80 76 104 124 173 151 259 163 126 112 127 117 119 127 122 113 104 98 93 98 99 104 101 103 100 96 105 114 119 112 125 143 150 152 131 136 160 167 174 175 172 164 163 186 181 177 182
17 13 20 14 21 17 6 8 19 29 39 45 19 13 8 3 355 359 359 359 346 346 351 347 342 356 13 16 15 14 25 33 63 71 52 28 24 41 23 356 292 262 235 207 101 94 144 120 86 83 83 69 56 42 98 110 98 93 99 107 105 105 107 105 115 125 134 140 131 120 133 147 173 166 180 185 174 184 191 189 175 169 171 174 173 186 187
21 20 10 13 19 7 13 9 10 14 10 33 48 14 340 357 359 354 354 353 349 350 346 340 354 1 360 13 17 18 354 21 104 102 98 99 82 79 2 27 4 325 292 143 143 144 123 109 109 119 114 120 125 144 146 121 112 109 110 106 102 100 100 105 115 125 138 145 164 149 127 137 152 164 181 184 191 197 199 190 187 177 177 183 190 188 191
23 18 15 23 14 15 19 9 355 338 342 357 357 353 0 356 339 4 354 343 327 336 345 352 347 352 356 347 356 14 13 40 67 89 115 102 88 75 348 308 352 335 45 106 116 127 129 129 131 118 111 116 130 128 118 114 111 111 113 115 113 114 111 119 131 139 152 158 162 152 164 158 161 180 179 197 216 233 224 213 206 199 189 194 198 197 200
354 13 21 19 11 8 359 356 354 2 356 346 346 352 348 345 340 334 320 328 337 340 345 340 359 7 350 345 351 20 26 25 50 66 91 114 126 67 56 40 6 33 134 128 116 92 71 103 106 119 127 129 132 133 124 112 111 109 105 110 114 120 127 138 144 150 153 149 151 153 161 158 186 218 226 220 226 227 231 229 225 212 210 201 202 204 199
359 5 6 3 356 353 354 350 352 342 329 349 359 354 344 345 345 342 344 346 349 340 340 341 352 4 23 44 70 52 25 9 27 11 14 358 136 149 139 195 292 224 138 113 123 149 130 93 114 130 148 138 135 130 116 107 111 112 117 123 124 127 128 130 129 138 137 137 150 158 150 164 179 234 241 250 249 240 236 235 235 230 215 208 203 203 208
340 348 348 354 350 340 343 350 351 0 12 353 347 340 349 355 353 339 334 339 343 345 348 344 355 1 2 12 21 16 0 354 29 11 44 34 58 8 291 135 336 157 148 145 192 156 108 107 120 163 154 151 146 130 117 123 121 130 139 134 134 130 134 130 135 137 143 144 151 160 172 174 179 187 200 231 243 243 237 232 234 232 230 220 212 206 206
336 324 324 317 317 342 354 354 359 347 327 316 323 329 353 358 348 342 332 332 337 334 344 349 345 350 356 344 334 292 268 264 243 73 36 32 34 20 310 116 140 26 165 158 145 126 144 155 191 179 167 157 144 134 130 138 149 150 146 143 143 143 149 155 163 170 172 176 177 176 169 179 186 191 197 212 226 241 243 237 237 232 230 226 216 211 208
323 320 313 322 335 332 318 309 307 329 339 335 347 354 4 358 345 341 347 349 336 331 323 324 319 312 315 303 305 319 308 288 274 247 215 182 116 204 256 74 151 159 185 162 137 167 182 192 204 197 162 156 152 140 149 158 153 151 147 153 159 165 169 184 185 190 188 181 183 178 187 194 197 218 212 229 246 241 256 250 247 237 229 229 224 215 209
309 309 305 291 290 297 322 338 333 360 350 10 14 341 329 342 339 333 331 329 310 302 314 311 297 287 268 242 212 199 283 302 297 264 249 243 251 256 286 273 187 190 180 169 177 185 186 196 205 191 171 174 154 151 163 161 162 162 165 171 175 181 185 188 192 200 196 199 191 192 194 194 203 208 215 229 252 255 257 254 249 243 234 229 232 226 217
310 306 297 299 301 312 344 18 41 25 7 338 302 302 309 319 323 320 316 318 315 308 294 292 288 292 295 257 238 237 220 179 331 309 250 244 253 252 278 236 203 193 187 182 192 201 199 197 193 187 184 181 157 168 173 169 169 177 181 188 187 192 194 195 203 205 208 206 204 201 207 221 226 230 235 246 264 271 267 252 254 252 236 228 229 224 219
282 277 287 298 299 311 329 338 352 347 325 300 313 306 314 324 321 324 322 334 346 340 332 320 315 308 304 295 286 243 226 218 210 255 294 292 274 265 262 243 221 197 178 180 196 200 206 206 200 194 194 184 167 182 182 185 181 187 192 195 196 197 195 199 204 199 198 203 204 202 211 216 221 210 230 238 254 265 272 276 270 263 258 243 239 229 222
280 278 298 292 284 288 309 347 325 299 297 313 302 303 311 329 341 324 327 321 311 306 306 304 306 304 303 309 311 290 253 212 228 251 270 273 251 244 239 231 225 202 192 194 203 212 218 212 210 204 205 190 178 189 191 196 196 197 200 202 202 204 206 204 198 190 196 198 202 211 214 219 222 222 222 231 240 247 251 264 271 278 272 258 244 240 233
333 317 268 265 275 280 257 231 244 266 281 276 270 277 294 305 290 292 298 303 318 327 321 316 302 290 303 302 294 294 278 278 270 248 248 257 230 219 215 207 217 214 205 204 210 214 211 213 213 217 218 207 195 198 199 201 206 207 205 204 206 202 199 194 184 190 197 200 201 207 213 219 216 221 225 229 230 239 247 257 265 265 252 249 242 237 235
294 280 269 278 273 272 268 266 259 251 248 258 262 265 265 266 290 314 318 324 332 305 314 331 320 315 261 280 303 303 293 257 231 246 246 237 230 237 229 212 202 212 210 211 217 216 213 219 219 219 218 215 209 209 213 212 211 213 217 216 212 209 204 198 190 197 203 205 203 203 212 213 208 218 229 228 226 230 238 238 243 249 248 248 244 239 230